Location: Labatmale
(43.1833°N, 0.1500°W)
Time: 11:15:05
(UTC+00:00)

Daily predictions for brighter satellites

Satellite Brightness Start Highest point End
(mag) Time Altitude Azimuth Time Altitude Azimuth Time Altitude Azimuth
Cosmos 2297 3.7 16:49:02 10° NNW 16:54:43 66° ENE 17:00:23 10° SE
SL-16 R/B 2.2 16:51:20 10° SSW 16:56:59 78° ESE 17:02:39 10° NNE
CZ-4B R/B 3.0 16:57:31 10° NE 16:59:27 15° E 17:01:24 10° SE
Landsat 5 3.7 16:56:16 10° NNE 17:00:46 76° ESE 17:05:17 10° S
BREEZE-M DEB (TANK) 1.7 16:58:10 10° WSW 17:01:26 88° NNW 17:03:23 10° ENE
SMAP 3.2 17:00:26 10° SSE 17:04:56 52° ENE 17:09:28 10° N
USA 215 4.5 17:00:13 10° ENE 17:05:18 24° SE 17:10:22 10° S
Sich 1 3.3 17:04:28 10° N 17:08:50 77° W 17:13:08 10° S
Cosmos 1151 Rocket 3.1 17:07:07 10° S 17:11:16 53° E 17:15:25 10° NNE
CZ-4C R/B 3.4 17:08:07 10° N 17:11:45 71° WNW 17:15:19 10° SSW
Cosmos 1470 Rocket 4.1 17:09:44 10° N 17:13:41 34° ENE 17:17:36 10° SE
Cosmos 1515 Rocket 4.3 17:15:26 10° SSE 17:19:21 33° E 17:23:18 10° NNE
CZ-2C R/B 4.3 17:17:48 10° ESE 17:21:00 17° ENE 17:24:07 10° NNE
Cosmos 482 Debris 2.6 17:20:46 10° NW 17:22:31 48° NNE 17:23:46 17° ESE
SL-8 Rocket 4.0 17:16:39 10° N 17:22:55 76° E 17:29:13 10° SSE
Cosmos 2341 Rocket 4.2 17:18:09 10° N 17:24:29 81° W 17:30:49 10° S
Radarsat Rocket 4.4 17:20:40 10° SSE 17:26:45 77° WSW 17:33:38 10° NNW
COSMO-SKYMED 1 3.5 17:23:29 10° NE 17:27:11 27° E 17:30:52 10° SSE
X-37B 0.6 17:24:07 10° WSW 17:27:17 81° SSE 17:29:28 19° ENE
Cosmos 1689 Rocket 4.3 17:29:02 11° ESE 17:29:02 11° ESE 17:29:22 10° ESE
USA 281 4.1 17:23:12 10° ESE 17:28:25 26° NE 17:33:38 10° N
Cosmos 2228 Rocket 4.3 17:28:29 10° SE 17:32:01 23° E 17:34:29 15° NE
CORIOLIS 4.1 17:26:51 10° SSE 17:32:15 81° ENE 17:37:43 10° NNW
USA 81 4.0 17:27:12 10° N 17:32:31 78° E 17:37:48 10° S
Meteor 1-4 Rocket 2.4 17:29:39 10° S 17:33:13 64° E 17:36:44 10° NNE
Cosmos 2285 Rocket 4.1 17:28:33 10° NNW 17:34:57 83° WSW 17:41:17 10° SSE
Cosmos 1812 4.0 17:32:56 10° SE 17:35:51 21° E 17:36:35 20° ENE
H-2A R/B 3.4 17:35:18 17° ENE 17:35:54 17° ENE 17:39:10 10° NNE
Cosmos 1939 Rocket 3.3 17:34:35 10° SE 17:38:10 37° ENE 17:41:49 10° N
USA 267 4.1 17:34:10 15° ENE 17:38:32 31° NNE 17:44:07 10° NW
Cosmos 1328 Rocket 3.5 17:34:52 10° S 17:39:10 85° W 17:43:33 10° N
CZ-4 R/B 2.8 17:41:26 19° NE 17:41:26 19° NE 17:43:34 10° NNE
BREEZE-M DEB (TANK) 3.6 17:37:53 10° SSW 17:41:29 24° SSE 17:42:53 17° ESE
Cosmos 44 Rocket 4.3 17:38:17 10° NNW 17:42:45 28° NE 17:45:09 20° E
Cosmos 1933 Rocket 3.7 17:39:27 10° N 17:43:49 49° ENE 17:48:07 10° SSE
IRS-1C Rocket 4.4 17:39:36 10° SE 17:44:34 43° ENE 17:49:32 10° N
Cosmos 1602 3.6 17:42:27 10° N 17:46:23 82° E 17:50:15 10° S
Cosmos 2181 Rocket 4.3 17:40:41 10° SSW 17:47:05 73° W 17:53:26 10° N
H-2A R/B 4.3 17:43:28 10° SSW 17:47:20 34° W 17:51:07 10° NNW
Lacrosse 4 Rocket 3.4 17:46:00 10° SE 17:46:59 13° ESE 17:46:59 13° ESE
NOAA 11 4.1 17:42:50 10° SSE 17:48:16 85° ENE 17:53:44 10° NNW
Cosmos 1680 Rocket 4.4 17:44:13 10° SSE 17:48:35 27° E 17:50:18 23° ENE
Cosmos 2237 Rocket 4.4 17:44:45 10° W 17:48:36 18° NW 17:52:29 10° N
CZ-4B R/B 3.7 17:44:20 10° S 17:49:34 60° WSW 17:54:49 10° NNW
SL-24 R/B 4.2 17:49:33 23° NE 17:51:20 38° E 17:54:44 10° SSE
Cosmos 1603 3.7 17:47:04 10° S 17:52:35 58° ESE 17:56:56 16° NE
CZ-2D R/B 3.6 17:51:26 10° SE 17:55:01 40° ENE 17:58:38 10° N
Cosmos 1943 3.3 17:50:28 10° S 17:55:57 55° ESE 17:59:58 19° NE
Cosmos 1538 Rocket 4.1 17:52:43 10° SSW 17:58:06 83° WNW 18:03:31 10° NNE
H-2A R/B 3.7 17:55:08 10° N 17:58:58 34° WNW 18:02:51 10° SW
Cosmos 2369 Rocket 2.1 17:53:46 10° NNW 17:59:29 78° ENE 18:05:07 10° SSE
Cosmos 1943 Rocket 2.6 17:55:11 10° NNW 18:00:42 64° WSW 18:06:13 10° S
Cosmos 1782 3.2 17:57:40 10° SSW 18:01:36 64° W 18:05:34 10° N
Okean O Rocket 2.8 17:57:35 10° S 18:01:46 45° W 18:06:00 10° NNW
Meteor 1-14 Rocket 4.3 17:55:57 10° N 18:01:58 86° E 18:07:57 10° S
Meteor 1-5 Rocket 4.4 17:56:16 10° N 18:02:03 52° ENE 18:07:36 10° SSE
Cosmos 1461 4.2 17:59:01 10° SSE 18:02:44 25° ESE 18:02:44 25° ESE
Okean-O 3.1 17:59:20 10° SE 18:03:24 37° ENE 18:07:29 10° N
CENTAUR R/B 3.1 18:00:58 10° S 18:06:01 33° ESE 18:07:44 29° E
ISS -2.1 18:03:25 10° NW 18:05:55 21° N 18:05:55 21° N
SL-08 R/B 4.4 18:06:52 10° N 18:13:01 89° W 18:19:08 10° S
ERS-2 2.5 18:10:45 15° N 18:13:43 63° WNW 18:17:19 10° SSW
NOSS 3-2 (C) 3.9 18:09:07 10° S 18:14:05 36° ESE 18:15:09 33° E
SKYMED 2 3.5 18:11:44 14° NNE 18:15:26 89° ESE 18:19:46 10° SSW
Cosmos 1869 Rocket 4.0 18:14:13 10° N 18:22:43 11° SSE 18:22:51 10° SSE
BREEZE-M DEB (TANK) 3.3 18:09:18 10° SW 18:18:55 72° SSE 18:19:59 47° E
Meteor 1-27 Rocket 4.1 18:15:21 10° SSE 18:20:11 37° E 18:20:11 37° E
Meteor 1-10 Rocket 4.1 18:19:09 10° S 18:24:44 69° E 18:28:49 19° NNE
Lacrosse 5 rocket 3.3 18:23:15 10° NW 18:25:18 14° NNW 18:25:53 14° N
BREEZE-M DEB (TANK) 4.3 18:25:54 10° NW 18:26:37 17° NW 18:26:37 17° NW
FALCON 9 R/B 3.0 18:27:33 10° SW 18:28:30 14° S 18:28:30 14° S
CZ-4B R/B 3.5 18:29:34 13° NNW 18:31:42 25° WNW 18:34:20 10° SW
NOSS 3-2 (A) 3.2 18:33:37 10° SW 18:39:13 90° SSE 18:41:27 42° NE
SL-16 R/B 4.4 18:37:47 10° W 18:41:45 19° NW 18:45:44 10° N
Cosmos 1500 4.1 18:38:39 10° NNW 18:42:20 48° W 18:46:02 10° SSW
YAOGAN 1 3.7 18:46:29 32° N 18:46:29 32° N 18:48:52 10° NNW
Cosmos 2239 Rocket 4.4 18:39:01 10° N 18:45:13 87° W 18:51:26 10° S
Cosmos 1535 Rocket 4.3 18:40:02 10° N 18:46:06 62° E 18:52:09 10° SSE
USA 215 3.1 18:46:42 47° NE 18:48:52 87° SE 18:55:25 10° SW
Cosmos 1656 Rocket 3.9 18:48:54 10° NNW 18:54:30 69° WSW 18:58:58 16° S
MOS 1 Rocket 3.6 18:52:44 35° N 18:55:09 81° WNW 19:00:29 10° SSW
USA 238 DEB 3.6 18:51:58 10° SW 18:58:32 80° NW 19:00:35 49° NNE
USA 238 3.6 18:52:04 10° SW 18:58:38 80° NW 19:00:39 49° NNE
Cosmos 158 Rocket 4.4 18:54:45 10° SW 18:59:37 54° WNW 19:00:45 43° NNW
CZ-2C R/B 3.4 18:55:32 10° S 19:00:28 58° W 19:05:14 10° NNW
COSMO-SKYMED 1 4.4 19:00:19 14° NNW 19:03:18 29° WNW 19:07:01 10° SW
X-37B 3.5 19:00:52 10° W 19:01:44 17° WNW 19:01:44 17° WNW
Cosmos 1238 Rocket 4.1 19:01:26 10° NNW 19:05:24 46° W 19:10:11 10° SSW
Cosmos 1934 Rocket 4.0 19:01:42 10° N 19:08:05 84° W 19:14:22 10° S
CSL-04 Debris 4.3 19:09:14 68° NNW 19:09:14 68° NNW 19:14:00 10° NNW
USA 281 3.3 19:05:48 10° SSE 19:12:21 72° WSW 19:18:56 10° NNW
H-2A R/B 2.6 19:15:55 52° NW 19:15:55 52° NW 19:19:57 10° NNW
CZ-4 R/B 3.6 19:17:28 20° NW 19:17:28 20° NW 19:19:04 10° NNW
USA 267 3.4 19:21:32 61° N 19:21:32 61° N 19:27:19 10° NW
Cosmos 44 Rocket 4.3 19:19:31 10° NW 19:23:56 48° W 19:23:56 48° W
Meteor 1-11 Rocket 4.4 19:19:26 10° NNW 19:25:04 54° W 19:30:47 10° S
Lacrosse 4 Rocket 3.8 19:22:15 10° SW 19:23:20 18° SW 19:23:20 18° SW
CENTAUR R/B 3.5 19:50:34 10° WSW 19:54:58 43° W 19:54:58 43° W
